Regional Weather Roundup
Issued by NWS

Home | Current Version | Previous Version | Text Only | Print | Product List | Glossary On
Versions: 1 2 3 4 5 6 7 8 9 10 11 12 13 14 15 16 17 18 19 20 21 22 23 24 25 26 27 28 29 30 31 32 33 34 35 36 37 38 39 40 41 42 43 44 45 46 47 48 49 50
000
ASUS43 KDTX 051910
RWRMI
MICHIGAN HOURLY REGIONAL WEATHER ROUNDUP
NATIONAL WEATHER SERVICE DETROIT/PONTIAC MI
200 PM EST MON DEC 05 2016

NOTE: "FAIR" INDICATES FEW OR NO CLOUDS BELOW 12,000 FEET WITH NO
SIGNIFICANT WEATHER AND/OR OBSTRUCTION TO VISIBILITY.

MIZ047>049-052>055-059>063-066>070-074>076-081>083-052000-
SOUTHEAST LOWER MICHIGAN

CITY           SKY/WX    TMP DP  RH WIND       PRES   REMARKS
ADRIAN         CLOUDY    36  30  79 SW12      30.07S WCI  28
ALMA           SUNNY     40  32  73 SW12G18   29.99S WCI  32
ANN ARBOR      CLOUDY    39  33  79 S10       30.04R WCI  32
BAD AXE        CLOUDY    39  33  77 W13       29.98S WCI  32
CARO           PTSUNNY   41  33  72 SW9       29.99R
DETROIT CITY   CLOUDY    41  31  67 W9G16     30.04S
DETROIT        PTSUNNY   41  33  73 SW14      30.06R
FLINT          PTSUNNY   41  32  70 SW9       30.01F
GROSSE ILE     CLOUDY    41  32  72 SW8       30.05R
HILLSDALE      CLOUDY    32  28  86 SW8       30.04S WCI  25
HOWELL         PTSUNNY   39  32  76 W9        30.01S WCI  32

CITY           SKY/WX    TMP DP  RH WIND       PRES   REMARKS
JACKSON        CLOUDY    37  29  72 SW13      30.04R WCI  29
LAMBERTVILLE   CLOUDY    39  31  73 SW8       30.08R WCI  34
LANSING        PTSUNNY   39  31  72 SW12      30.02S WCI  32
LAPEER         NOT AVBL
MASON          CLOUDY    37  32  81 SW9       30.03R WCI  31
MONROE         CLOUDY    39  34  81 SW13      30.06R WCI  32
MT. CLEMENS    PTSUNNY   42  31  66 W6        30.01F
PONTIAC        PTSUNNY   39  31  72 SW12      30.00F WCI  32
PORT HOPE        N/A     41  32  70 SW8G21    29.96R
PORT HURON     PTSUNNY   39  30  70 SW6       30.02S WCI  35
TRI CITIES     CLOUDY    39  33  79 SW13      29.99S WCI  31
MIDLAND        CLOUDY    40  30  67 W8        29.97S WCI  35
TROY           CLOUDY    42  30  62 W12       30.04S
SAGINAW HB     MOSUNNY   39  30  70 SW12      29.99S WCI  32
$$
MIZ043>046-050>051-056>058-064>065-071>073-077>080-052000-
SOUTHWEST LOWER MICHIGAN

CITY           SKY/WX    TMP DP  RH WIND       PRES   REMARKS
BATTLE CREEK   CLOUDY    35  32  88 S15       30.04R WCI  25
BENTON HARBOR  CLOUDY    34  29  82 S9        30.05S WCI  27
BIG RAPIDS     SUNNY     42  30  62 SW6       29.95F
COLDWATER      CLOUDY    35  30  82 SW5       30.06S WCI  31
FREMONT        FAIR      40  29  65 SW9G16    29.97S WCI  34
HOLLAND        PTSUNNY   40  34  79 S12       30.01S WCI  33
GRAND RAPIDS   PTSUNNY   39  31  72 SW12      30.01S WCI  32
IONIA          PTSUNNY   38  32  78 SW9       30.00R WCI  32
KALAMAZOO      CLOUDY    34  29  82 S14       30.05R HAZE    WCI  25
LUDINGTON      PTSUNNY   40  33  75 SW8       29.96S WCI  34
MARSHALL       CLOUDY    35  31  87 S8        30.04S WCI  28
MOUNT PLEASANT MOSUNNY   40  31  69 W9        29.97S WCI  34
MUSKEGON       PTSUNNY   43  34  70 S15       30.00S
SOUTH HAVEN    CLOUDY    36  33  88 S13       30.03F WCI  28
$$
MIZ016>042-052000-
NORTHERN LOWER MICHIGAN

CITY           SKY/WX    TMP DP  RH WIND       PRES   REMARKS
ALPENA         CLOUDY    40  31  70 W13       29.90R WCI  32
BEAVER ISLAND  CLOUDY    39  32  73 W12       29.89R WCI  32
BELLAIRE       CLOUDY    42  31  67 SW7G17    29.93R
CADILLAC       PTSUNNY   37  30  75 SW8       29.93R WCI  31
CHARLEVOIX     CLOUDY    42  31  67 W17G24    29.94R
FRANKFORT      CLOUDY    41  34  75 SW9       29.95R
GAYLORD        PTSUNNY   38  27  64 W16G26    29.88R WCI  29
GRAYLING       SUNNY     38  31  76 W10       29.92R WCI  31
HARBOR SPRINGS CLOUDY    41  32  70 W14G20    29.89R
HOUGHTON LAKE  CLOUDY    38  30  73 W12       29.94R WCI  30
MANISTEE       CLOUDY    41  32  70 SW8       29.95F
OSCODA         CLOUDY    42  36  79 SW12      29.93R
PELLSTON       CLOUDY    38  30  73 W13       29.88R WCI  30
ROGERS CITY    CLOUDY    37  34  90 W8        29.89R WCI  30
TRAVERSE CITY  PTSUNNY   43  31  62 SW13G18   29.93S
$$
MIZ007>008-015-052000-
EASTERN UPPER MICHIGAN

CITY           SKY/WX    TMP DP  RH WIND       PRES   REMARKS
KINROSS        SUNNY     38  32  79 W13       29.85R WCI  30
MACKINAC ISLAN PTSUNNY   38  30  73 W18       29.86R WCI  28
NEWBERRY       CLOUDY    36  32  85 W9        29.85R WCI  29
S. S. MARIE    CLOUDY    37  32  82 W7        29.84S WCI  32
MUNISING         N/A     40  29  64 W9        29.85R WCI  34
$$
MIZ004>006-011>014-085-052000-
CENTRAL UPPER MICHIGAN

CITY           SKY/WX    TMP DP  RH WIND       PRES   REMARKS
MANISTIQUE     SUNNY     40  32  72 W7        29.87R
ESCANABA       CLOUDY    38  32  79 S7        29.90R WCI  33
MENOMINEE      PTSUNNY   37  31  78 SW8       29.92S WCI  31
SAWYER-GWINN   MOSUNNY   34  28  80 W5        29.84S WCI  30
$$
MIZ001>003-009>011-084-052000-
WESTERN UPPER MICHIGAN

CITY           SKY/WX    TMP DP  RH WIND       PRES   REMARKS
IRON MOUNTAIN  SUNNY     39  27  62 S7        29.84R WCI  34
HOUGHTON       CLOUDY    35  29  78 SW7       29.80R WCI  29
COPPER HARBOR    N/A     37  31  78 VRB5      29.81S WCI  33
IRONWOOD       SUNNY     39  28  64 SW3       29.80S
$$

ABBREVIATIONS USED IN REMARKS
   TC - TEMPERATURE IN CELSIUS
  WCI - WIND CHILL INDEX
   HX - HEAT INDEX
  VSB - VISIBILITY




USA.gov is the U.S. government's official web portal to all federal, state and local government web resources and services.